This demonstration page uses our WeatherBlox Daily Observations layout. Learn more.

Left ArrowRight Arrow

36.17497, -115.13722

Hourly Observations for December 14, 2019

Temp ( °F °C ) Dew Point ( °F °C ) Humidity (%) Winds ( mph kmh ) Pressure ( in mb ) Visibility ( mi km ) Precip ( " mm )
12:53 am 00:53 Clear 47 8.3 38 3.3 71 71 Calm 29.94 1014 10 16 0.00 0.00
1:53 am 01:53 Clear 46 7.8 37 2.8 71 71 NNW 3 6 29.93 1013 10 16 0.00 0.00
2:53 am 02:53 Clear 44 6.7 37 2.8 76 76 NNW 5 7 29.91 1013 10 16 0.00 0.00
3:53 am 03:53 Clear 45 7.2 37 2.8 74 74 WNW 3 6 29.88 1012 10 16 0.00 0.00
4:53 am 04:53 Clear 43 6.1 37 2.8 80 80 NNW 3 6 29.88 1012 10 16 0.00 0.00
5:53 am 05:53 Clear 43 6.1 37 2.8 80 80 WNW 7 11 29.88 1012 10 16 0.00 0.00
6:53 am 06:53 Sunny 43 6.1 37 2.8 80 80 NW 8 13 29.89 1012 10 16 0.00 0.00
7:53 am 07:53 Sunny 48 8.9 37 2.8 66 66 NNW 9 15 29.90 1013 10 16 0.00 0.00
8:53 am 08:53 Sunny 52 11.1 38 3.3 59 59 N 8 13 29.91 1013 10 16 0.00 0.00
9:53 am 09:53 Sunny 56 13.3 40 4.4 55 55 NE 3 6 29.92 1013 10 16 0.00 0.00
10:53 am 10:53 Sunny 57 13.9 41 5 55 55 Calm 29.90 1013 10 16 0.00 0.00
11:53 am 11:53 Sunny 57 13.9 41 5 55 55 Calm 29.87 1011 10 16 0.00 0.00
12:53 pm 12:53 Mostly Cloudy 59 15 40 4.4 49 49 Calm 29.84 1011 10 16 0.00 0.00
1:53 pm 13:53 Cloudy 60 15.6 40 4.4 47 47 Calm 29.82 1010 10 16 0.00 0.00
2:53 pm 14:53 Cloudy 62 16.7 40 4.4 44 44 Calm 29.81 1010 10 16 0.00 0.00
3:53 pm 15:53 Cloudy 60 15.6 41 5 50 50 E 6 9 29.80 1009 10 16 0.00 0.00
4:53 pm 16:53 Cloudy 58 14.4 42 5.6 56 56 E 3 6 29.80 1009 10 16 0.00 0.00
5:53 pm 17:53 Partly Cloudy 57 13.9 42 5.6 58 58 Calm 29.80 1009 10 16 0.00 0.00
6:53 pm 18:53 Mostly Cloudy 56 13.3 42 5.6 60 60 Calm 29.80 1009 10 16 0.00 0.00
7:53 pm 19:53 Cloudy 53 11.7 43 6.1 69 69 Calm 29.79 1009 10 16 0.00 0.00
8:53 pm 20:53 Cloudy with Light Rain 53 11.7 46 7.8 77 77 NNW 7 11 29.79 1009 6 10 0.02 0.51
9:53 pm 21:53 Cloudy 51 10.6 46 7.8 83 83 E 5 7 29.80 1009 10 16 0.01 0.25
10:53 pm 22:53 Cloudy 51 10.6 46 7.8 83 83 SW 6 9 29.79 1009 10 16 0.00 0.00
11:53 pm 23:53 Clear 50 10 44 6.7 80 80 S 5 7 29.77 1008 10 16 0.00 0.00

Powered by AerisWeather